www.pogodaiklimat.ru

Погода и климат >> Архив погоды >> Россия >> Крым >> Раздольное


ПОГОДА в Раздольном

  • Прогноз погоды в Раздольном
  • Монитор погоды в Раздольном

АРХИВ ПОГОДЫ в Раздольном

Время (UTC), дата Ветер
(напр.,м/с)
 
Видим.   Явления Облачность Т
(С)
Тd
(С)
f
(%)
Тe
(С)
Тes
(С)
Комфортность P
(гПа)
Po
(гПа)
Тmin
(С)
Tmax
(С)
R
(мм)
R24
(мм)
S
(см)
18 10.07 З 3 20 км 10/0
[Cc]
+21.1 +9.2 46 +22 +22 комфорт 1008.1 1006.1 +25.6
21 10.07 ЮЗ 1 10 км 8/0
[Ac lent]
+18.9 +11.4 62 +21 +21 комфорт 1007.8 1005.8
00 11.07 СЗ 3 10 км 10/10 600 м
[Sc]
+19.7 +12.4 63 +22 +22 комфорт 1007.0 1005.0
03 11.07 СЗ 4 20 км 10/10 600 м
[Sc]
+18.7 +11.2 62 +19 +19 1006.4 1004.4 +18.5
06 11.07 СЗ 4 20 км 10/10 600 м
[Sc]
+18.3 +13.2 72 +19 +19 1007.8 1005.8 +18.2
09 11.07 СЗ 2 20 км 8/6 600 м
[Sc Ac lent]
+20.2 +11.1 56 +22 +27 комфорт 1008.2 1006.2
12 11.07 СЗ 3 20 км 4/4 1000 м
[Cu hum]
+23.3 +9.1 40 +25 +32 комфорт 1008.0 1006.0
15 11.07 З 4 20 км 3/3 600 м
[Cu med, cong]
+23.4 +11.3 47 +26 +27 жарко 1006.9 1004.9
18 11.07 З 3 20 км ясно +20.5 +10.4 52 +22 +22 комфорт 1007.1 1005.1 +23.8
21 11.07 З 1 10 км ясно +16.9 +12.0 73 +18 +18 1007.7 1005.7
00 12.07 штиль 0 10 км ясно +16.3 +12.9 80 +16 +16 1007.7 1005.7
03 12.07 штиль 0 20 км 4/3 600 м
[Cu med, cong Ac trans]
+13.8 +11.2 84 +13 +14 1007.9 1005.8 +13.4
06 12.07 С 2 20 км 4/0
[Ac trans]
+20.9 +12.4 58 +24 +30 комфорт 1008.4 1006.4 +13.4
09 12.07 СЗ 4 20 км 4/3 600 м
[Cu med, cong Ci fib]
+23.9 +6.9 34 +24 +32 комфорт 1008.5 1006.5
12 12.07 З 4 20 км 10/3 600 м
[Cu med, cong Ac As]
+23.6 +8.3 38 +24 +26 комфорт 1008.8 1006.8
15 12.07 З 4 20 км 10/3 600 м
[Cu med, cong Ac As]
+22.9 +9.4 42 +24 +25 комфорт 1008.8 1006.8
18 12.07 З 4 20 км 8/3 600 м
[Cb cap Ac lent]
+21.1 +10.8 52 +23 +23 комфорт 1009.8 1007.8 +25.1
21 12.07 Ю 3 10 км зарница 6/6 600 м
[Cb cap]
+16.3 +11.1 71 +16 +16 1010.0 1008.0
00 13.07 Ю 3 10 км зарница 3/3 600 м
[Cb cap]
+15.6 +12.0 79 +15 +15 1009.9 1007.9
03 13.07 Ю 2 10 км ясно +13.5 +10.6 83 +13 +13 1009.7 1007.6 +13.2
09 13.07 СЗ 4 20 км 3/3 1000 м
[Cu med, cong]
+24.1 +9.2 39 +25 +33 комфорт 1010.5 1008.5
12 13.07 СЗ 4 20 км 3/3 1000 м
[Cu med, cong]
+26.0 +9.6 36 +27 +33 жарко 1010.3 1008.3
15 13.07 З 4 20 км 3/3 1000 м
[Cu med, cong]
+25.1 +9.9 38 +26 +27 жарко 1010.2 1008.2
18 13.07 З 3 20 км 3/1 600 м
[Cu med, cong Ci fib]
+21.2 +12.0 56 +23 +23 комфорт 1010.9 1008.9 +26.3
21 13.07 Ю 1 10 км ясно +16.2 +11.0 71 +17 +17 1011.0 1009.0
00 14.07 Ю 1 10 км ясно +15.3 +11.8 80 +16 +16 1010.9 1008.9
03 14.07 Ю 1 20 км 3/0
[Ci fib]
+14.6 +11.7 83 +15 +15 1010.5 1008.4 +14.0
06 14.07 штиль 0 20 км ясно +23.1 +15.3 61 +27 +39 душно 1009.6 1007.6 +14.0
09 14.07 СЗ 3 20 км 8/6 600 м
[Sc Ac lent]
+24.7 +12.4 46 +26 +30 жарко 1008.4 1006.4
12 14.07 С 4 20 км 8/8 1000 м
[Cb calv]
+28.0 +10.3 33 +28 +30 жарко 1007.6 1005.6
15 14.07 С 4 20 км 8/8 1000 м
[Cb calv]
+27.8 +11.5 36 +29 +29 жарко 1006.6 1004.6
18 14.07 ЮЗ 2 20 км 8/8 600 м
[Cb cap]
+24.3 +12.1 46 +26 +26 жарко 1007.1 1005.1 +28.5
21 14.07 штиль 0 10 км ясно +19.3 +13.9 71 +21 +21 комфорт 1007.2 1005.2
00 15.07 штиль 0 10 км ясно +17.7 +13.3 75 +18 +18 1006.2 1004.2
03 15.07 ЮВ 2 10 км ясно +14.8 +11.4 80 +14 +15 1006.1 1004.1 +14.6
06 15.07 В 2 20 км 8/0
[Ci fib]
+22.7 +16.1 66 +27 +34 душно 1006.2 1004.2 +14.6
09 15.07 СВ 3 20 км 6/6 1000 м
[Cu med, cong]
+26.5 +14.9 49 +29 +35 жарко 1006.2 1004.2
12 15.07 Ю 3 20 км в посл. час гроза {ливн. осадки} 10/10 600 м
[Cb calv]
+21.6 +15.6 69 +25 +25 комфорт 1006.1 1004.1
15 15.07 СЗ 3 20 км 8/8 600 м
[Sc diur, vesp]
+23.6 +12.5 50 +26 +26 жарко 1006.1 1004.1 3
18 15.07 СЗ 2 10 км 10/10 600 м
[Sc]
+21.7 +12.8 57 +24 +24 комфорт 1006.2 1004.2 +26.9 3
21 15.07 ЮВ 1 10 км 10/10 600 м
[Sc]
+19.1 +14.5 75 +22 +22 комфорт 1006.7 1004.7
00 16.07 С 1 10 км 10/10 600 м
[Sc]
+18.5 +14.2 76 +20 +20 1006.7 1004.7
03 16.07 штиль 0 10 км 10/10 600 м
[Sc]
+17.2 +14.2 83 +17 +17 1006.7 1004.7 +17.0
06 16.07 СЗ 3 20 км 10/0
[Ac As]
+21.4 +14.6 65 +24 +26 комфорт 1007.0 1005.0 +17.0
09 16.07 СЗ 9 20 км 3/0
[Ci fib]
+24.4 +13.9 52 +27 +28 жарко 1007.2 1005.2
12 16.07 З 4
{10}
20 км 3/3 600 м
[Cu med, cong]
+27.2 +11.5 38 +28 +35 жарко 1007.2 1005.2
15 16.07 З 5
{11}
20 км 1/1 600 м
[Cu med, cong]
+26.5 +11.2 38 +27 +29 жарко 1007.3 1005.3
18 16.07 З 4 20 км 6/0
[Ci fib]
+23.5 +13.2 52 +26 +26 жарко 1007.3 1005.3 +27.5
21 16.07 ЮЗ 3 10 км 4/0
[Ci fib]
+17.7 +13.8 78 +18 +18 1008.3 1006.3
00 17.07 Ю 2 10 км 8/0
[Ci]
+17.1 +14.1 83 +17 +17 1008.6 1006.6
03 17.07 Ю 2 10 км 8/0
[Ci]
+17.3 +14.2 82 +18 +18 1008.4 1006.4 +16.9
06 17.07 штиль 0 20 км 3/0
[Ac trans]
+24.1 +15.3 58 +27 +36 жарко 1008.6 1006.6 +16.9

 

Местоположение метеостанции Раздольное (Крым, Россия): широта 45.78 долгота 33.48 высота над уровнем моря 17 м.

В архиве по умолчанию представлена погода в Раздольном за последнюю неделю. Архивные данные за месяц целиком и за предыдущие месяцы, начиная с января 2011 года, Вы можете получить, выбрав интересующий диапазон дат из раскрывающегося списка и нажав кнопку "Ввод!".


*Определитесь, кто Вы:
робот инопланетянин человек

Внимание! Время в таблицах - всемирное. Для получения местного времени необходимо прибавить поправку, которая равна 3 ч.

Смотрите также архив погоды в соседних городах и на ближайших метеорологических станциях:

Погода в Хорлах (Херсонская область, Украина) (30 км)
Погода в Ишуни (Крым, Россия) (31 км)
Погода в Клепинино (Крым, Россия) (61 км)
Погода в Черноморском (Крым, Россия) (67 км)
Погода в Евпатории (Крым, Россия) (67 км)
Погода в Джанкое (Крым, Россия) (72 км)
Погода в Аскании-Нове (Херсонская область, Украина) (81 км)
Погода в Стрелковом (Херсонская область, Украина) (87 км)
Погода в Симферополе (Крым, Россия) (92 км)
Погода в Нижнегорском (Крым, Россия) (104 км)

Пояснения к столбцам:

Ветер - указаны скорость ветра в м/с - средняя за 10 мин, порывы в срок и между сроками (в фигурных скобках) и направление, откуда дует ветер: С - северный, СВ - северо-восточный, В - восточный, ЮВ - юго-восточный, Ю - южный, ЮЗ - юго-западный, З - западный, СЗ - северо-западный.
Видимость - горизонтальная дальность видимости в метрах или километрах. При видимости от 1 до 10 км при отсутствии осадков обычно наблюдается дымка, при ухудшении видимости до 1 км и менее - туман. В сухую погоду видимость может ухудшаться дымом, пылью или мглою.
Явления - указаны атмосферные явления, наблюдавшиеся в срок или в последний час перед сроком; фигурными скобками обозначены явления, наблюдавшиеся между сроками (за 1-3 часа до срока); квадратными скобками обозначены град или гололедные отложения с указанием их диаметра в мм.
Облачность - указаны через наклонную черту общая и нижняя облачность в баллах и высота нижней границы облаков в метрах; квадратными скобками обозначены формы облаков: Ci - перистые, Cs - перисто-слоистые, Cc - перисто-кучевые, Ac - высококучевые, As - высокослоистые, Sc - слоисто-кучевые, Ns - слоисто-дождевые, Cu - кучевые, Cb - кучево-дождевые. Подробнее классификацию облаков см. в Атласе облаков (PDF).
T - Температура воздуха - температура, измеренная на высоте 2 м над землей.
Td - Температура точки росы - температура, при понижении до которой содержащийся в воздухе водяной пар достигнет насыщения.
f - Относительная влажность воздуха - влажноcть воздуха, измеренная на высоте 2 м над землей.
Te - Эффективная температура - температура, которую ощущает одетый по сезону человек в тени. Характеристика душности погоды. При расчете учитывается влияние влажности воздуха и скорости ветра на теплоощущения человека.
Tes - Эффективная температура на солнце - температура, которую ощущает человек, с поправкой на солнечный нагрев. Характеристика знойности погоды. Зависит от высоты солнца над горизонтом, облачности и скорости ветра. Ночью, в пасмурную погоду, а также при ветре 12 м/с и более поправка равна нулю.
P - Атмосферное давление - приведенное к уровню моря атмосферное давление.
Po - Атмосферное давление - измеренное на уровне метеостанции атмосферное давление.
Tmin - Минимальная температура - минимум температуры воздуха на высоте 2 м над землей.
Tmax - Максимальная температура - максимум температуры воздуха на высоте 2 м над землей.
R - Количество осадков - Количество выпавших осадков за период времени, мм. При наведении курсора мыши на число - период времени, за который выпало указанное количество осадков.
R24 - Количество осадков - Количество выпавших осадков за 24 часа, мм.
S - Снежный покров - Высота снежного покрова, см. При наведении курсора мыши на число - состояние снежного покрова и степень покрытия местности в баллах.